Home   Weather   Limerick   Past weeks

Flag for Ireland Past Weather in Limerick, Ireland — Yesterday and Last 2 Weeks

Now
55 °F

Partly sunny.


Feels Like: 53 °F
Forecast: 44 / 57 °F
Wind: 10 mph from Southwest

Location: Shannon Airport

Current Time: Sep 30, 2016 at 12:48:25 PM

Latest Report: Sep 30, 2016 at 12:30 PM


Visibility: N/A

Pressure: 29.77 "Hg

Humidity: 77%

Dew Point: 48 °F

Location of LimerickLocation

Past Weather in Limerick — Graph

°F

Limerick Temperature Yesterday

Maximum temperature yesterday: 59 °F (at 11:30 AM)
Minimum temperature yesterday: 50 °F (at 9:30 PM)
Average temperature yesterday: 55 °F

High & Low Weather Summary for the Past Weeks

 TemperatureHumidityPressure
High66 °F (Sep 28, 9:30 AM)100% (Sep 17, 1:00 AM)30.33 "Hg (Sep 17, 1:00 AM)
Low45 °F (Sep 22, 2:30 AM)59% (Sep 19, 2:30 PM)29.53 "Hg (Sep 24, 4:00 PM)
Average56 °F84%30.00 "Hg
* Reported Sep 15 11:00 AM — Sep 30 11:30 AM, Limerick, Weather by CustomWeather, © 2016

Note: Actual official high and low records may vary slightly from our data, if they occured in-between our weather recording intervals... More about our weather records

Advertising

Limerick Weather History for the Previous 24 Hours

Scroll right to see more
 ConditionsComfort  
Time TempWeatherWind HumidityBarometerVisibility
11:30 AM
Fri, Sep 30
55 °FPartly sunny.14 mph72%29.80 "HgN/A
11:00 AM55 °FScattered clouds.10 mph77%29.80 "HgN/A
10:30 AM54 °FScattered clouds.10 mph82%29.80 "HgN/A
10:00 AM54 °FScattered clouds.13 mph77%29.80 "HgN/A
9:30 AM52 °FScattered clouds.12 mph82%29.80 "HgN/A
9:00 AM50 °FScattered clouds.12 mph94%29.80 "HgN/A
8:30 AM50 °FPassing clouds.8 mph88%29.80 "HgN/A
8:00 AM50 °FPassing clouds.8 mph94%29.80 "HgN/A
7:30 AM50 °FPassing clouds.8 mph94%29.80 "HgN/A
7:00 AM52 °FSprinkles. Passing clouds.14 mph82%29.80 "HgN/A
6:30 AM50 °FPassing clouds.13 mph94%29.80 "HgN/A
6:00 AM50 °FSprinkles. Partly cloudy.13 mph94%29.80 "HgN/A
5:30 AM48 °FPassing clouds.12 mph94%29.80 "HgN/A
5:00 AM48 °FPassing clouds.9 mph94%29.80 "HgN/A
4:30 AM50 °FPassing clouds.10 mph88%29.80 "HgN/A
4:00 AM50 °FPassing clouds.7 mph94%29.80 "HgN/A
3:30 AM48 °FPassing clouds.7 mph94%29.80 "HgN/A
3:00 AM48 °FPassing clouds.9 mph94%29.83 "HgN/A
2:30 AM50 °FPassing clouds.8 mph88%29.83 "HgN/A
2:00 AM50 °FPassing clouds.10 mph88%29.83 "HgN/A
1:30 AM50 °FPassing clouds.8 mph88%29.86 "HgN/A
1:00 AM50 °FPassing clouds.8 mph88%29.86 "HgN/A
12:30 AM52 °FPassing clouds.9 mph82%29.86 "HgN/A
12:00 AM52 °FPassing clouds.12 mph82%29.86 "HgN/A
11:30 PM
Thu, Sep 29
52 °FPassing clouds.13 mph82%29.86 "HgN/A
11:00 PM50 °FPassing clouds.9 mph88%29.89 "HgN/A
10:30 PM50 °FPassing clouds.12 mph88%29.89 "HgN/A
10:00 PM50 °FPassing clouds.8 mph88%29.89 "HgN/A
9:30 PM50 °FPassing clouds.9 mph88%29.89 "HgN/A
9:00 PM54 °FPassing clouds.10 mph82%29.89 "HgN/A
8:30 PM54 °FPassing clouds.14 mph82%29.89 "HgN/A
8:00 PM54 °FPassing clouds.14 mph82%29.89 "HgN/A
7:30 PM54 °FPassing clouds.15 mph82%29.89 "HgN/A
7:00 PM54 °FPassing clouds.15 mph82%29.89 "HgN/A
6:30 PM54 °FPassing clouds.15 mph82%29.92 "HgN/A
6:00 PM55 °FScattered clouds.15 mph77%29.92 "HgN/A
5:30 PM57 °FPassing clouds.20 mph72%29.92 "HgN/A
5:00 PM57 °FPassing clouds.24 mph67%29.92 "HgN/A
4:30 PM59 °FPassing clouds.21 mph72%29.92 "HgN/A
4:00 PM57 °FPassing clouds.20 mph77%29.92 "HgN/A
3:30 PM59 °FScattered clouds.23 mph68%29.92 "HgN/A
3:00 PM59 °FPassing clouds.22 mph68%29.92 "HgN/A
2:30 PM57 °FScattered clouds.22 mph77%29.92 "HgN/A
2:00 PM55 °FScattered clouds.16 mph82%29.92 "HgN/A
1:30 PM59 °FSprinkles. Scattered clouds.21 mph77%29.92 "HgN/A
1:00 PM55 °FPassing clouds.13 mph88%29.95 "HgN/A
12:30 PM57 °FSprinkles. Scattered clouds.22 mph72%29.95 "HgN/A
12:00 PM59 °FSprinkles. Passing clouds.18 mph68%29.92 "HgN/A
Weather by CustomWeather, © 2016

See weather overviewHow to use our weather pages